CW9197 Juva FI current weather conditions

sailwx.info

Wind from 292

Air temperature 26.7° C
Dewpoint 17.1° C

Last reported at 2014-Jul-25 17:50 UTC.
Time now 2014-Jul-25 18:22 UTC

Location: N 61°53' E 027°53'.
View on Google Maps.

See reports from other nearby stations

  
Tides and Currents Weather Stations Pressure Air Temp Water Temp Dewpoint Dewpoint Depression Visibility Wind Speed Wind Dir Waves Ship Positions
date/time (UTC)wind fromknots sea level pressurealtimeterstation pressurevisibilityair tempwater tempwave heightnotes
2014-Jul-25 17:50 292 26.7
2014-Jul-25 17:40 292 26.7
2014-Jul-25 17:30 337 27.2
2014-Jul-25 17:20 272 27.2
2014-Jul-25 17:10 278 27.2
2014-Jul-25 17:00 316 27.2
2014-Jul-25 16:50 339 1 gusting 3 27.8
2014-Jul-25 16:40 346 0 gusting 4 27.8
2014-Jul-25 16:30 349 3 gusting 6 27.8
2014-Jul-25 16:20 334 3 gusting 7 28.3
2014-Jul-25 16:10 355 2 gusting 4 28.3
2014-Jul-25 16:00 270 1 gusting 2 28.3
2014-Jul-25 15:50 258 1 gusting 3 28.3
2014-Jul-25 15:40 256 0 gusting 5 28.9
2014-Jul-25 15:30 251 3 gusting 6 28.9
2014-Jul-25 15:20 265 0 gusting 6 28.3
2014-Jul-25 15:10 245 2 gusting 6 28.3
2014-Jul-25 15:00 254 1 gusting 3 28.3
2014-Jul-25 14:50 248 2 gusting 4 28.9
2014-Jul-25 14:40 261 1 gusting 5 28.9
2014-Jul-25 14:29 269 0 gusting 4 28.9
2014-Jul-25 14:19 320 2 gusting 4 28.3
2014-Jul-25 14:09 228 1 gusting 3 28.3
2014-Jul-25 13:59 248 0 gusting 4 27.8
2014-Jul-25 13:49 231 1 gusting 3 27.2
2014-Jul-25 13:39 243 0 gusting 3 26.7
2014-Jul-25 13:29 251 0 gusting 6 27.2
2014-Jul-25 13:19 298 4 gusting 7 28.3
2014-Jul-25 13:09 346 0 gusting 2 28.9
2014-Jul-25 12:59 059 2 gusting 9 30.0
2014-Jul-25 12:49 265 1 gusting 5 30.0
2014-Jul-25 12:39 244 3 gusting 6 29.4
2014-Jul-25 12:29 308 2 gusting 6 28.9
2014-Jul-25 12:19 346 1 gusting 4 27.8
2014-Jul-25 12:09 321 2 gusting 4 27.8
2014-Jul-25 11:59 016 1 gusting 4 27.8
2014-Jul-25 11:49 356 3 gusting 6 28.3
2014-Jul-25 11:39 027 0 gusting 4 28.3
2014-Jul-25 11:29 067 1 gusting 2 28.9
2014-Jul-25 11:19 336 0 gusting 6 29.4
2014-Jul-25 11:09 305 2 gusting 7 30.0
2014-Jul-25 10:59 221 2 gusting 4 29.4
2014-Jul-25 10:49 262 2 gusting 5 29.4
2014-Jul-25 10:39 253 0 gusting 4 27.8
2014-Jul-25 10:29 315 0 gusting 4 28.3
2014-Jul-25 10:19 250 1 gusting 5 30.0
2014-Jul-25 10:09 216 1 gusting 6 30.0
2014-Jul-25 09:59 251 3 gusting 6 30.0
2014-Jul-25 09:49 301 3 gusting 6 30.0
2014-Jul-25 09:39 219 2 gusting 4 30.0
2014-Jul-25 09:29 234 2 gusting 4 29.4
2014-Jul-25 09:19 234 1 gusting 4 28.9
2014-Jul-25 09:09 220 1 gusting 3 28.9
2014-Jul-25 08:59 254 1 gusting 4 28.9
2014-Jul-25 08:49 266 0 gusting 4 28.9
2014-Jul-25 08:39 289 1 gusting 3 28.9
2014-Jul-25 08:29 252 1 gusting 3 28.9
2014-Jul-25 08:19 222 0 gusting 3 28.9
2014-Jul-25 08:09 229 1 gusting 3 28.3
2014-Jul-25 07:59 215 1 gusting 4 28.3
2014-Jul-25 07:49 291 2 gusting 3 28.3
2014-Jul-25 07:39 272 1 gusting 4 27.2
2014-Jul-25 07:29 231 1 gusting 4 27.8
2014-Jul-25 07:19 222 2 gusting 4 27.8
2014-Jul-25 07:09 238 1 gusting 5 27.8
2014-Jul-25 06:59 257 0 gusting 3 27.8
2014-Jul-25 06:49 265 0 gusting 3 27.2
2014-Jul-25 06:39 255 0 gusting 5 27.2
2014-Jul-25 06:29 249 1 gusting 3 26.7
2014-Jul-25 06:19 261 1 gusting 3 26.7
2014-Jul-25 06:09 240 1 gusting 4 26.7
2014-Jul-25 05:59 245 1 gusting 3 26.1
2014-Jul-25 05:49 237 1 gusting 2 26.1
2014-Jul-25 05:39 266 2 gusting 4 25.6
2014-Jul-25 05:29 211 1 gusting 1 25.6
2014-Jul-24 19:18 270 22.8
2014-Jul-24 19:08 225 23.3
2014-Jul-24 18:58 214 23.3
2014-Jul-24 18:48 199 23.3
2014-Jul-24 18:38 180 23.3
2014-Jul-24 18:28 166 1 gusting 3 23.9
2014-Jul-24 18:18 169 0 gusting 2 23.9
2014-Jul-24 18:08 157 0 gusting 2 24.4
2014-Jul-24 17:58 107 25.0
2014-Jul-24 17:48 202 25.0
2014-Jul-24 17:38 193 25.6
2014-Jul-24 17:28 181 0 gusting 1 25.6
2014-Jul-24 17:18 176 0 gusting 1 25.6
2014-Jul-24 17:08 225 26.1
2014-Jul-24 16:58 225 26.1
2014-Jul-24 16:48 202 26.1
2014-Jul-24 16:38 207 0 gusting 1 26.1
2014-Jul-24 16:28 183 0 gusting 1 26.1
2014-Jul-24 16:18 106 26.1
2014-Jul-24 16:08 196 0 gusting 1 26.1
2014-Jul-24 15:58 199 0 gusting 2 26.1
2014-Jul-24 15:48 260 26.1
2014-Jul-24 15:38 213 0 gusting 2 26.7
2014-Jul-24 15:28 219 1 gusting 3 26.1
2014-Jul-24 15:18 177 0 gusting 2 26.1
2014-Jul-24 15:08 164 26.7
2014-Jul-24 14:58 202 26.7
2014-Jul-24 14:48 200 1 gusting 4 26.7
2014-Jul-24 14:38 149 0 gusting 4 26.1
2014-Jul-24 14:28 219 2 gusting 3 26.7
2014-Jul-24 14:18 202 2 gusting 4 26.7
2014-Jul-24 14:08 208 2 gusting 5 26.1
2014-Jul-24 13:58 147 0 gusting 4 26.1
2014-Jul-24 13:48 101 1 gusting 5 26.7
2014-Jul-24 13:38 073 1 gusting 3 26.1
2014-Jul-24 13:28 091 2 gusting 4 26.1
2014-Jul-24 13:18 168 1 gusting 3 26.7
2014-Jul-24 13:08 242 1 gusting 4 26.7
2014-Jul-24 12:58 222 2 gusting 3 26.1
2014-Jul-24 12:48 067 26.1
2014-Jul-24 12:38 226 2 gusting 4 26.7
2014-Jul-24 12:28 220 2 gusting 3 27.2
2014-Jul-24 12:18 218 0 gusting 4 27.2
2014-Jul-24 12:08 211 1 gusting 4 27.8
2014-Jul-24 11:58 223 2 gusting 4 27.8
2014-Jul-24 11:48 227 2 gusting 4 28.3
2014-Jul-24 11:38 205 2 gusting 4 27.8
2014-Jul-24 11:28 218 3 gusting 5 28.3
2014-Jul-24 11:18 212 2 gusting 4 27.8
2014-Jul-24 11:08 226 2 gusting 5 27.2
2014-Jul-24 10:58 080 0 gusting 3 26.7
2014-Jul-24 10:48 014 26.7
2014-Jul-24 10:38 074 0 gusting 1 26.7
2014-Jul-24 10:28 199 0 gusting 4 27.8
2014-Jul-24 10:18 207 2 gusting 4 28.3
2014-Jul-24 10:08 217 2 gusting 5 28.3
2014-Jul-24 09:58 215 0 gusting 4 28.3
2014-Jul-24 09:47 199 2 gusting 4 27.8
2014-Jul-24 09:37 217 2 gusting 4 28.3
2014-Jul-24 09:27 215 1 gusting 4 27.8
2014-Jul-24 09:17 198 2 gusting 4 27.2
2014-Jul-24 09:07 181 0 gusting 3 27.2
2014-Jul-24 08:57 214 2 gusting 4 27.8
2014-Jul-24 08:47 208 2 gusting 4 27.8
2014-Jul-24 08:37 212 2 gusting 4 27.8
2014-Jul-24 08:27 202 3 gusting 4 27.2
2014-Jul-24 08:17 209 2 gusting 6 27.2
2014-Jul-24 08:07 210 2 gusting 5 27.2
2014-Jul-24 07:57 180 2 gusting 4 27.2
2014-Jul-24 07:47 211 2 gusting 4 26.7
2014-Jul-24 07:37 215 2 gusting 4 26.1
2014-Jul-24 07:27 204 1 gusting 4 26.1
2014-Jul-24 07:17 225 2 gusting 3 26.7
2014-Jul-24 07:07 205 1 gusting 3 26.7
2014-Jul-24 06:57 209 1 gusting 5 26.7
2014-Jul-24 06:47 222 1 gusting 3 26.1
2014-Jul-24 06:37 198 0 gusting 3 26.1
2014-Jul-24 06:27 215 1 gusting 3 26.1
2014-Jul-24 06:17 164 1 gusting 3 25.6
2014-Jul-24 06:07 180 1 gusting 4 25.6
2014-Jul-24 05:57 198 2 gusting 3 25.6
2014-Jul-24 05:47 211 1 gusting 5 25.6
2014-Jul-23 19:38 067 0 gusting 1 22.2
2014-Jul-23 19:28 056 0 gusting 2 22.2
2014-Jul-23 19:18 047 0 gusting 2 22.8
2014-Jul-23 19:08 007 3 gusting 6 22.8
2014-Jul-23 18:58 355 4 gusting 9 23.3
2014-Jul-23 18:47 032 5 gusting 11 23.9
2014-Jul-23 18:37 011 4 gusting 11 24.4
2014-Jul-23 18:27 301 4 gusting 5 25.0
2014-Jul-23 18:17 022 25.0
2014-Jul-23 18:07 338 0 gusting 1 25.6